Regional Weather Roundup
Issued by NWS Spokane, WA

Home | Current Version | Previous Version | Text Only | Print | Product List | Glossary On
Versions: 1 2 3 4 5 6 7 8 9 10 11 12 13 14 15 16 17 18 19 20 21 22 23 24 25 26 27 28 29 30 31 32 33 34 35 36 37 38 39 40 41 42 43 44 45 46 47 48 49 50
430
NZUS01 KOTX 222010
RWROTX

Eastern Washington/Northern Idaho Roundup
National Weather Service, Spokane WA
100 PM PDT TUE MAY 22 2018

Note: "fair" indicated few or no clouds below 12,000 feet with no
significant weather and/or obstructions to visibility.

...Northeast Washington and Northern Idaho Panhandle...

CITY           SKY/WX    TMP DP  RH WIND       PRES   REMARKS
Spokane Intl   MOSUNNY   79  50  36 N7        29.91F
Spokane Downto MOSUNNY   81  52  36 NW8       29.89F
Coeur d Alene  SUNNY     80  50  34 N9        29.90F
Deer Park      SUNNY     80  47  31 CALM      29.91F
Sandpoint      SUNNY     75  46  35 SE6       29.90F
Bonners Ferry  FAIR      73  46  38 W3        29.92F

...Southeast Washington and southern Idaho Panhandle...

CITY           SKY/WX    TMP DP  RH WIND       PRES   REMARKS
Walla Walla    SUNNY     81  57  43 N5        29.84F
Pullman/Moscow SUNNY     77  55  46 VRB5      29.91F
Lewiston       SUNNY     80  55  42 VRB6      29.85F
Lowell           N/A     78  52  40 CALM      29.80F
Grangeville    FAIR      68  55  64 CALM      29.91F

...Columbia Basin...

CITY           SKY/WX    TMP DP  RH WIND       PRES   REMARKS
Ephrata        SUNNY     84  46  26 E7        29.87F
Moses Lake     SUNNY     84  46  26 CALM      29.88
Pasco          SUNNY     84  54  35 NW9       29.84F
Richland       CLEAR     89  47  23 NE8       29.83F
Hermiston      SUNNY     86  53  32 N9        29.83F
Pendleton      SUNNY     82  49  31 NE13G18   29.86F

...East Slopes Cascades...

CITY           SKY/WX    TMP DP  RH WIND       PRES   REMARKS
The Dalles     SUNNY     85  49  28 VRB3      29.83F
Yakima         SUNNY     85  45  24 VRB5      29.87F
Ellensburg     SUNNY     84  44  24 E6        29.90F
Wenatchee      SUNNY     79  46  31 VRB3      29.88F
Winthrop       CLOUDY    81  47  29 S8        29.90F
Omak           SUNNY     82  50  32 S5        29.89F
Sunnyside      CLEAR     81  49  33 CALM      29.85F

...Southern British Columbia...

CITY           SKY/WX    TMP DP  RH WIND       PRES   REMARKS
Penticton      MOSUNNY   75  48  38 N8        29.88F
Castlegar      MOSUNNY   77  45  31 N7        29.90F
Cranbrook      MOSUNNY   75  41  29 VRB5      29.96F
Osoyoos          N/A     81  45  28 NW2         N/A
Creston          N/A     75  48  38 NW6         N/A

...Western Montana...

CITY           SKY/WX    TMP DP  RH WIND       PRES   REMARKS
Kalispell      CLEAR     79  42  26 W7        29.93F
Libby            N/A     81  48  32 SW7       29.90F
Missoula       MOSUNNY   74  44  34 E14       29.95F

...Neighboring Cities...

CITY           SKY/WX    TMP DP  RH WIND       PRES   REMARKS
Seattle        MOSUNNY   71  51  49 W10       29.92F
Portland       MOSUNNY   75  52  44 W8        29.86F
Boise          MOSUNNY   77  53  43 NE5       29.85F
Great Falls    CLOUDY    64  50  60 CALM      30.03F
Calgary        MOSUNNY   75  39  27 SE13      30.00F



USA.gov is the U.S. government's official web portal to all federal, state and local government web resources and services.